Location: Julian California
(33.0790°N, 116.6010°W)
Time: 23:09:33
(UTC-07:00)

Cosmos 1697 Rocket - Pass Details

Date: 22 March 2019
Orbit: 834 x 842 km, 71.0° (Epoch: 23 April)

Event Time Altitude Azimuth Distance (km) Brightness Sun altitude
Rises 20:02:24 0° 209° (SSW) 3,379 6.1 -13.9°
Reaches altitude 10° 20:04:52 10° 213° (SSW) 2,448 5.4 -14.4°
Maximum altitude 20:10:24 58° 293° (WNW) 970 3.3 -15.6°
Drops below altitude 10° 20:15:58 10° 12° (NNE) 2,458 5.1 -16.7°
Sets 20:18:27 0° 16° (NNE) 3,394 5.8 -17.2°
